Staples, MN

8:15 AM CDT on June 26, 2017 (GMT -0500)
Staples Municipal

Weather History for KSAZ - April, 2014

Change the Weather History Date:

Saturday, April 12, 2014

  Actual Average Record
Temperature  
Mean Temperature 42 °F -  
Max Temperature 48 °F 50 °F 75 °F (2015)
Min Temperature 37 °F 29 °F 15 °F (2016)
Degree Days  
Heating Degree Days 22    
Moisture  
Dew Point 37 °F    
Average Humidity 82    
Maximum Humidity 100    
Minimum Humidity 50    
Precipitation  
Precipitation 0.49 in - - ()
Sea Level Pressure  
Sea Level Pressure 29.81 in    
Wind  
Wind Speed 7 mph (East)    
Max Wind Speed 15 mph    
Max Gust Speed 20 mph    
Visibility 10 miles    
Events Rain    
Averages and records for this station are not official NWS values.
T = Trace of Precipitation, MM = Missing Value Source: NWS Daily Summary

Daily Weather History Graph

Daily Weather History Graph

Search for Another Location

Airport or City:

Trip Planner

Search our weather history database for the weather conditions in past years. The results will help you decide how hot, cold, wet, or windy it might be!

Date:

Astronomy

Apr. 12, 2014 Rise Set
Actual Time 6:37 AM CDT 8:02 PM CDT
Civil Twilight 6:06 AM CDT 8:34 PM CDT
Nautical Twilight 5:28 AM CDT 9:12 PM CDT
Astronomical Twilight 4:48 AM CDT 9:52 PM CDT
Moon 5:34 PM CDT (4/12) 5:14 AM CDT (4/12)
Length of Visible Light 14h 27m
Length of Day
13h 25m
Waxing Gibbous, 93% of the Moon is Illuminated
Apr 12
Waxing Gibbous
Apr 15
Full
Apr 22
Last Quarter
Apr 29
New
May 6
First Quarter

Hourly Weather History & Observations

Time (CDT) Temp. Windchill Dew Point Humidity Pressure Visibility Wind Dir Wind Speed Gust Speed Precip Events Conditions
12:13 AM 46.4 °F 42.4 °F 28.4 °F 50% 29.91 in 10.0 mi East 8.1 mph - N/A Rain Light Rain
12:34 AM 46.4 °F 44.3 °F 30.2 °F 53% 29.92 in 10.0 mi East 4.6 mph - N/A   Light Drizzle
12:53 AM 44.6 °F - 32.0 °F 61% 29.94 in 7.0 mi Calm Calm - N/A Rain Light Rain
1:13 AM 42.8 °F 40.1 °F 35.6 °F 76% 29.93 in 10.0 mi SE 4.6 mph - 0.02 in Rain Light Rain
1:33 AM 41.0 °F - 35.6 °F 81% 29.94 in 7.0 mi Calm Calm - 0.06 in Rain Rain
1:53 AM 39.2 °F 37.0 °F 37.4 °F 93% 29.94 in 7.0 mi SE 3.5 mph - 0.13 in Rain Rain
2:14 AM 41.0 °F 35.2 °F 39.2 °F 93% 29.94 in 10.0 mi SSE 9.2 mph - 0.06 in Rain Rain
2:33 AM 41.0 °F 34.7 °F 37.4 °F 87% 29.94 in 10.0 mi SSE 10.4 mph - 0.10 in Rain Rain
2:53 AM 39.2 °F 34.2 °F 37.4 °F 93% 29.92 in 10.0 mi ESE 6.9 mph - 0.16 in Rain Rain
3:14 AM 39.2 °F 35.0 °F 37.4 °F 93% 29.91 in 10.0 mi East 5.8 mph - 0.03 in Rain Light Rain
3:33 AM 39.2 °F 34.2 °F 37.4 °F 93% 29.90 in 10.0 mi East 6.9 mph - 0.06 in Rain Rain
3:53 AM 39.2 °F 34.2 °F 37.4 °F 93% 29.90 in 10.0 mi East 6.9 mph - 0.11 in Rain Rain
4:14 AM 39.2 °F - 37.4 °F 93% 29.92 in 10.0 mi Calm Calm - 0.02 in Rain Light Rain
4:33 AM 39.2 °F 35.0 °F 37.4 °F 93% 29.90 in 10.0 mi East 5.8 mph - 0.05 in Rain Rain
4:53 AM 39.2 °F 35.0 °F 39.2 °F 100% 29.89 in 10.0 mi East 5.8 mph - 0.06 in Rain Rain
5:14 AM 39.2 °F 34.2 °F 37.4 °F 93% 29.88 in 10.0 mi East 6.9 mph - 0.02 in Rain Light Rain
5:34 AM 39.2 °F 33.0 °F 39.2 °F 100% 29.86 in 10.0 mi East 9.2 mph - 0.03 in Rain Rain
5:53 AM 39.2 °F 33.0 °F 39.2 °F 100% 29.85 in 10.0 mi East 9.2 mph - 0.03 in   Light Drizzle
6:14 AM 39.2 °F 34.2 °F 39.2 °F 100% 29.85 in 10.0 mi East 6.9 mph - N/A   Overcast
6:34 AM 39.2 °F 33.6 °F 37.4 °F 93% 29.82 in 10.0 mi East 8.1 mph - N/A   Overcast
6:53 AM 39.2 °F 34.2 °F 37.4 °F 93% 29.81 in 10.0 mi East 6.9 mph 16.1 mph N/A   Overcast
7:14 AM 39.2 °F 33.6 °F 37.4 °F 93% 29.82 in 10.0 mi East 8.1 mph - N/A   Overcast
7:34 AM 39.2 °F 33.6 °F 37.4 °F 93% 29.80 in 10.0 mi East 8.1 mph - N/A   Overcast
7:53 AM 39.2 °F 35.9 °F 37.4 °F 93% 29.80 in 10.0 mi East 4.6 mph - N/A   Overcast
8:14 AM 39.2 °F 33.6 °F 39.2 °F 100% 29.81 in 10.0 mi East 8.1 mph - N/A   Overcast
8:33 AM 39.2 °F 33.6 °F 37.4 °F 93% 29.80 in 10.0 mi East 8.1 mph - N/A   Overcast
8:53 AM 39.2 °F 34.2 °F 39.2 °F 100% 29.80 in 10.0 mi East 6.9 mph - N/A   Overcast
9:13 AM 41.0 °F 35.8 °F 39.2 °F 93% 29.79 in 10.0 mi East 8.1 mph - N/A   Overcast
9:34 AM 41.0 °F 35.2 °F 39.2 °F 93% 29.79 in 10.0 mi East 9.2 mph - N/A   Overcast
9:53 AM 42.8 °F 36.6 °F 39.2 °F 87% 29.79 in 10.0 mi East 11.5 mph 16.1 mph N/A   Mostly Cloudy
10:13 AM 44.6 °F 38.4 °F 39.2 °F 81% 29.79 in 10.0 mi ESE 12.7 mph 19.6 mph N/A   Mostly Cloudy
10:34 AM 44.6 °F 39.7 °F 39.2 °F 81% 29.79 in 10.0 mi ESE 9.2 mph 19.6 mph N/A   Overcast
10:53 AM 44.6 °F 38.8 °F 39.2 °F 81% 29.79 in 10.0 mi East 11.5 mph 18.4 mph N/A   Overcast
11:13 AM 46.4 °F 41.1 °F 39.2 °F 76% 29.78 in 10.0 mi East 11.5 mph 19.6 mph N/A   Overcast
11:34 AM 46.4 °F 40.1 °F 37.4 °F 71% 29.78 in 10.0 mi East 15.0 mph 19.6 mph N/A   Overcast
11:53 AM 46.4 °F 41.5 °F 37.4 °F 71% 29.78 in 10.0 mi East 10.4 mph 16.1 mph N/A   Overcast
12:13 PM 46.4 °F 42.9 °F 37.4 °F 71% 29.77 in 10.0 mi East 6.9 mph 17.3 mph N/A   Overcast
12:34 PM 46.4 °F 40.7 °F 37.4 °F 71% 29.76 in 10.0 mi East 12.7 mph 17.3 mph N/A   Overcast
12:53 PM 46.4 °F 40.7 °F 37.4 °F 71% 29.76 in 10.0 mi East 12.7 mph 18.4 mph N/A   Overcast
1:13 PM 46.4 °F 41.1 °F 37.4 °F 71% 29.76 in 10.0 mi East 11.5 mph 18.4 mph N/A   Overcast
1:34 PM 46.4 °F 41.9 °F 37.4 °F 71% 29.76 in 10.0 mi East 9.2 mph 16.1 mph N/A   Overcast
1:53 PM 48.2 °F - 37.4 °F 66% 29.75 in 10.0 mi East 9.2 mph - N/A   Overcast
2:13 PM 48.2 °F - 39.2 °F 71% 29.75 in 10.0 mi ESE 11.5 mph 16.1 mph N/A   Overcast
2:34 PM 48.2 °F - 39.2 °F 71% 29.75 in 10.0 mi ESE 8.1 mph - N/A   Overcast
2:53 PM 48.2 °F - 39.2 °F 71% 29.75 in 10.0 mi East 8.1 mph - N/A   Overcast
3:13 PM 48.2 °F - 39.2 °F 71% 29.74 in 10.0 mi East 9.2 mph 17.3 mph N/A   Overcast
3:34 PM 48.2 °F - 39.2 °F 71% 29.74 in 10.0 mi East 10.4 mph - N/A   Overcast
3:53 PM 48.2 °F - 39.2 °F 71% 29.74 in 10.0 mi East 8.1 mph - N/A   Overcast
4:13 PM 48.2 °F - 39.2 °F 71% 29.74 in 10.0 mi ESE 5.8 mph 17.3 mph N/A   Overcast
4:34 PM 48.2 °F - 39.2 °F 71% 29.74 in 10.0 mi East 8.1 mph - N/A   Overcast
4:53 PM 48.2 °F - 39.2 °F 71% 29.74 in 10.0 mi East 9.2 mph - N/A   Overcast
5:13 PM 46.4 °F 43.5 °F 37.4 °F 71% 29.74 in 10.0 mi East 5.8 mph - N/A   Overcast
5:34 PM 46.4 °F 42.9 °F 37.4 °F 71% 29.75 in 10.0 mi ENE 6.9 mph - N/A   Overcast
5:53 PM 46.4 °F 45.2 °F 37.4 °F 71% 29.76 in 10.0 mi East 3.5 mph - N/A   Overcast
6:14 PM 46.4 °F 43.5 °F 37.4 °F 71% 29.76 in 10.0 mi ENE 5.8 mph - N/A   Overcast
6:33 PM 46.4 °F 43.5 °F 37.4 °F 71% 29.76 in 10.0 mi East 5.8 mph - N/A   Overcast
6:53 PM 44.6 °F 42.2 °F 37.4 °F 76% 29.76 in 10.0 mi ENE 4.6 mph - N/A   Overcast
7:14 PM 44.6 °F 41.4 °F 37.4 °F 76% 29.76 in 10.0 mi ENE 5.8 mph - N/A   Overcast
7:33 PM 44.6 °F 40.7 °F 37.4 °F 76% 29.77 in 10.0 mi East 6.9 mph - N/A   Overcast
7:53 PM 42.8 °F 40.1 °F 37.4 °F 81% 29.78 in 10.0 mi East 4.6 mph - N/A   Overcast
8:13 PM 42.8 °F 39.3 °F 37.4 °F 81% 29.78 in 10.0 mi ENE 5.8 mph - N/A   Overcast
8:33 PM 42.8 °F 38.6 °F 37.4 °F 81% 29.77 in 10.0 mi ENE 6.9 mph - N/A   Overcast
8:54 PM 41.0 °F 38.0 °F 35.6 °F 81% 29.78 in 10.0 mi East 4.6 mph - N/A   Overcast
9:13 PM 39.2 °F 33.0 °F 35.6 °F 87% 29.78 in 10.0 mi ESE 9.2 mph - N/A   Overcast
9:33 PM 39.2 °F 33.6 °F 35.6 °F 87% 29.79 in 10.0 mi ESE 8.1 mph - N/A   Overcast
9:54 PM 39.2 °F 37.0 °F 35.6 °F 87% 29.80 in 10.0 mi East 3.5 mph - N/A   Overcast
10:13 PM 39.2 °F 35.9 °F 35.6 °F 87% 29.80 in 10.0 mi East 4.6 mph - N/A   Overcast
10:33 PM 37.4 °F - 35.6 °F 93% 29.79 in 10.0 mi Calm Calm - N/A   Overcast
10:54 PM 37.4 °F - 35.6 °F 93% 29.78 in 10.0 mi Calm Calm - N/A   Overcast
11:13 PM 37.4 °F 34.9 °F 35.6 °F 93% 29.77 in 10.0 mi ENE 3.5 mph - N/A   Overcast
11:33 PM 37.4 °F - 35.6 °F 93% 29.76 in 10.0 mi Calm Calm - N/A   Overcast
11:54 PM 37.4 °F - 35.6 °F 93% 29.78 in 10.0 mi Calm Calm - N/A   Overcast